This is the latest recevied weather packets stored in our database for station/object IQ8VX-3. If no packets are shown the sender has not sent any weather packets the latest 10 day(s).
| Time | Temp. | Humidity | Pressure | Rain* | Wind** | Luminosity | Snow |
|---|---|---|---|---|---|---|---|
| 1777485322 | 18.89° C | 57% | 1705.6 hPa | - | - | - | - |
| 1777484122 | 19.44° C | 50% | 1706.9 hPa | - | - | - | - |
| 1777482921 | 19.44° C | 52% | 1707 hPa | - | - | - | - |
| 1777481721 | 19.44° C | 54% | 1706.6 hPa | - | - | - | - |
| 1777480521 | 19.44° C | 56% | 1705.9 hPa | - | - | - | - |
| 1777479382 | 19.44° C | 57% | 1706.3 hPa | - | - | - | - |
| 1777478181 | 20.56° C | 51% | 1708.5 hPa | - | - | - | - |
| 1777476981 | 20.56° C | 51% | 1709 hPa | - | - | - | - |
| 1777475781 | 21.11° C | 50% | 1710.9 hPa | - | - | - | - |
| 1777474581 | 21.11° C | 49% | 1710.2 hPa | - | - | - | - |
| 1777473380 | 21.67° C | 46% | 1711.7 hPa | - | - | - | - |
| 1777472180 | 22.22° C | 44% | 1712.8 hPa | - | - | - | - |
| 1777470980 | 23.33° C | 44% | 1715.6 hPa | - | - | - | - |
| 1777469779 | 22.78° C | 42% | 1714.3 hPa | - | - | - | - |
| 1777468579 | 22.78° C | 40% | 1715.3 hPa | - | - | - | - |
| 1777467378 | 24.44° C | 39% | 1719.8 hPa | - | - | - | - |
| 1777466178 | 24.44° C | 41% | 1719.8 hPa | - | - | - | - |
| 1777464978 | 23.89° C | 41% | 1717.8 hPa | - | - | - | - |
| 1777463778 | 23.89° C | 42% | 1717.4 hPa | - | - | - | - |
| 1777462577 | 23.33° C | 43% | 1716.9 hPa | - | - | - | - |
| 1777461377 | 22.78° C | 43% | 1715.4 hPa | - | - | - | - |
| 1777460177 | 23.33° C | 47% | 1716.2 hPa | - | - | - | - |
| 1777458976 | 22.78° C | 46% | 1714.5 hPa | - | - | - | - |
| 1777457776 | 22.22° C | 50% | 1714.1 hPa | - | - | - | - |
| 1777456576 | 21.67° C | 53% | 1712.7 hPa | - | - | - | - |
* Rain since midnight (hover to see other rain measurements)
** Current wind speed in m/s (hover to see current wind gust speed)